Location: Miss�
(46.9484°N, 0.1922°W)
Time: 05:55:29
(UTC+00:00)

SJ-6B - Pass Details

Date: 02 March 2021
Orbit: 508 x 581 km, 97.6° (Epoch: 11 April)

Event Time Altitude Azimuth Distance (km) Brightness Sun altitude
Exits shadow 19:28:54 33° 135° (SE) 976 3.6 -18.0°
Maximum altitude 19:30:29 56° 73° (ENE) 687 2.9 -18.2°
Drops below altitude 10° 19:34:29 10° 355° (N) 1,880 5.7 -18.9°
Sets 19:36:38 0° 351° (N) 2,771 6.7 -19.3°
